Location: Academy at Carrie F Thomas
(32.8490°N, 97.2053°W)
Time: 14:43:12
(UTC+00:00)

Meteor 2-15 Rocket - Visible Passes

Search period start: 03 July 2022 00:00
Search period end: 13 July 2022 00:00
Orbit: 940 x 955 km, 82.5° (Epoch: 02 July)

Date Brightness Start Highest point End Pass type
(mag) Time Alt. Az. Time Alt. Az. Time Alt. Az.
04 Jul 7.2 09:52:05 10° NE 09:55:39 16° ENE 09:59:11 10° ESE visible
05 Jul 6.7 10:07:53 10° NNE 10:12:56 26° ENE 10:17:56 10° SE visible
06 Jul 5.8 10:24:18 10° N 10:30:06 42° E 10:35:51 10° SSE visible
07 Jul 4.8 10:41:02 10° N 10:47:11 70° E 10:53:15 10° SSE visible
08 Jul 7.2 09:16:05 10° NE 09:18:46 13° ENE 09:21:27 10° E visible
09 Jul 6.8 09:31:27 10° NNE 09:36:06 22° ENE 09:40:42 10° ESE visible
10 Jul 6.0 09:47:43 10° NNE 09:53:18 36° ENE 09:58:51 10° SE visible
11 Jul 5.0 10:04:21 10° N 10:10:25 59° E 10:16:25 10° SSE visible
12 Jul 7.3 08:40:46 10° ENE 08:41:53 10° ENE 08:43:01 10° E visible
12 Jul 4.4 10:21:16 10° N 10:27:26 85° W 10:33:32 10° S visible
